Weather History for KCVX - October, 2011

Change the Weather History Date:

Monday, October 31, 2011

  Actual Average Record
Temperature  
Mean Temperature 48 °F -  
Max Temperature 51 °F 56 °F 62 °F (2001)
Min Temperature 44 °F 39 °F 30 °F (2014)
Degree Days  
Heating Degree Days 18    
Moisture  
Dew Point 40 °F    
Average Humidity 77    
Maximum Humidity 87    
Minimum Humidity 62    
Precipitation  
Precipitation 0.00 in - - ()
Sea Level Pressure  
Sea Level Pressure 30.00 in    
Wind  
Wind Speed 8 mph (South)    
Max Wind Speed 13 mph    
Max Gust Speed 17 mph    
Visibility 10 miles    
Events      
Averages and records for this station are not official NWS values.
T = Trace of Precipitation, MM = Missing Value Source: NWS Daily Summary

Daily Weather History Graph

Daily Weather History Graph

Search for Another Location

Airport or City:

Trip Planner

Search our weather history database for the weather conditions in past years. The results will help you decide how hot, cold, wet, or windy it might be!

Date:

Astronomy

Oct. 31, 2011 Rise Set
Actual Time 8:18 AM EDT 6:30 PM EDT
Civil Twilight 7:47 AM EDT 7:01 PM EDT
Nautical Twilight 7:12 AM EDT 7:35 PM EDT
Astronomical Twilight 6:38 AM EDT 8:10 PM EDT
Moon 1:31 PM EDT (10/31) 11:00 PM EDT (10/31)
Length of Visible Light 11h 13m
Length of Day
10h 11m
Waxing Crescent, 29% of the Moon is Illuminated
Oct 31
Waxing Crescent
Nov 2
First Quarter
Nov 10
Full
Nov 18
Last Quarter
Nov 25
New

Hourly Weather History & Observations

Time (EDT) Temp. Windchill Dew Point Humidity Pressure Visibility Wind Dir Wind Speed Gust Speed Precip Events Conditions
12:14 AM 44.6 °F 40.7 °F 33.8 °F 66% 29.98 in 10.0 mi SE 6.9 mph - N/A   Overcast
12:34 AM 44.6 °F 40.2 °F 33.8 °F 66% 29.98 in 10.0 mi ESE 8.1 mph - N/A   Overcast
12:55 AM 44.6 °F 39.7 °F 33.8 °F 66% 29.97 in 10.0 mi ESE 9.2 mph - N/A   Overcast
1:15 AM 44.6 °F 40.2 °F 33.8 °F 66% 29.97 in 10.0 mi SE 8.1 mph - N/A   Overcast
1:34 AM 44.6 °F 39.7 °F 33.8 °F 66% 29.97 in 10.0 mi SE 9.2 mph - N/A   Overcast
1:55 AM 46.4 °F 42.4 °F 33.8 °F 62% 29.97 in 10.0 mi SE 8.1 mph - N/A   Overcast
2:14 AM 46.4 °F 41.9 °F 35.6 °F 66% 29.97 in 10.0 mi SSE 9.2 mph - N/A   Overcast
2:34 AM 46.4 °F 41.5 °F 35.6 °F 66% 29.97 in 10.0 mi SSE 10.4 mph 17.3 mph N/A   Overcast
2:55 AM 46.4 °F 41.9 °F 35.6 °F 66% 29.97 in 10.0 mi SE 9.2 mph - N/A   Overcast
3:14 AM 46.4 °F 41.9 °F 37.4 °F 71% 29.97 in 10.0 mi SE 9.2 mph - N/A   Overcast
3:34 AM 44.6 °F 39.7 °F 37.4 °F 76% 29.97 in 10.0 mi SSE 9.2 mph - N/A   Mostly Cloudy
3:55 AM 44.6 °F 38.8 °F 39.2 °F 81% 29.96 in 10.0 mi SSE 11.5 mph 16.1 mph N/A   Overcast
4:14 AM 44.6 °F 39.7 °F 39.2 °F 81% 29.96 in 10.0 mi SSE 9.2 mph - N/A   Mostly Cloudy
4:34 AM 44.6 °F 40.7 °F 39.2 °F 81% 29.96 in 10.0 mi SSE 6.9 mph - N/A   Overcast
4:55 AM 44.6 °F 40.2 °F 39.2 °F 81% 29.96 in 10.0 mi SSE 8.1 mph - N/A   Mostly Cloudy
5:14 AM 44.6 °F 41.4 °F 39.2 °F 81% 29.97 in 10.0 mi SE 5.8 mph - N/A   Mostly Cloudy
5:34 AM 44.6 °F 40.7 °F 39.2 °F 81% 29.97 in 10.0 mi SE 6.9 mph - N/A   Overcast
5:55 AM 44.6 °F 40.2 °F 39.2 °F 81% 29.97 in 10.0 mi SSE 8.1 mph - N/A   Overcast
6:14 AM 44.6 °F 40.2 °F 39.2 °F 81% 29.97 in 10.0 mi SSE 8.1 mph - N/A   Overcast
6:35 AM 44.6 °F 40.2 °F 41.0 °F 87% 29.97 in 10.0 mi SSE 8.1 mph - N/A   Overcast
6:54 AM 44.6 °F 40.2 °F 41.0 °F 87% 29.97 in 10.0 mi SSE 8.1 mph - N/A   Overcast
7:14 AM 44.6 °F 40.2 °F 41.0 °F 87% 29.97 in 10.0 mi South 8.1 mph - N/A   Overcast
7:54 AM 44.6 °F 42.2 °F 41.0 °F 87% 29.98 in 10.0 mi South 4.6 mph - N/A   Scattered Clouds
8:14 AM 44.6 °F 40.7 °F 41.0 °F 87% 29.98 in 10.0 mi SSE 6.9 mph - N/A   Scattered Clouds
8:35 AM 44.6 °F 41.4 °F 41.0 °F 87% 29.99 in 10.0 mi SSE 5.8 mph - N/A   Scattered Clouds
8:54 AM 44.6 °F 39.7 °F 41.0 °F 87% 29.99 in 10.0 mi SSE 9.2 mph - N/A   Scattered Clouds
9:14 AM 44.6 °F 40.2 °F 41.0 °F 87% 30.00 in 10.0 mi SSE 8.1 mph - N/A   Scattered Clouds
9:35 AM 44.6 °F 40.2 °F 41.0 °F 87% 30.00 in 10.0 mi SSE 8.1 mph - N/A   Overcast
9:54 AM 44.6 °F 40.7 °F 41.0 °F 87% 30.00 in 10.0 mi South 6.9 mph - N/A   Overcast
10:14 AM 46.4 °F 44.3 °F 41.0 °F 81% 30.00 in 10.0 mi SSE 4.6 mph - N/A   Mostly Cloudy
10:35 AM 46.4 °F 42.9 °F 41.0 °F 81% 30.01 in 10.0 mi SSE 6.9 mph - N/A   Overcast
10:54 AM 46.4 °F 42.4 °F 41.0 °F 81% 30.01 in 10.0 mi SE 8.1 mph - N/A   Mostly Cloudy
11:14 AM 46.4 °F 41.9 °F 41.0 °F 81% 30.01 in 10.0 mi SSE 9.2 mph - N/A   Mostly Cloudy
11:35 AM 46.4 °F 42.9 °F 41.0 °F 81% 30.02 in 10.0 mi South 6.9 mph - N/A   Overcast
11:54 AM 46.4 °F 41.9 °F 41.0 °F 81% 30.02 in 10.0 mi SSE 9.2 mph - N/A   Overcast
12:15 PM 48.2 °F - 41.0 °F 76% 30.02 in 10.0 mi SSE 8.1 mph - N/A   Overcast
12:34 PM 48.2 °F - 41.0 °F 76% 30.02 in 10.0 mi SSW 6.9 mph - N/A   Overcast
12:54 PM 48.2 °F - 41.0 °F 76% 30.01 in 10.0 mi South 6.9 mph - N/A   Mostly Cloudy
1:15 PM 50.0 °F - 41.0 °F 71% 30.00 in 10.0 mi SSW 8.1 mph - N/A   Overcast
1:34 PM 50.0 °F - 41.0 °F 71% 30.00 in 10.0 mi SSW 9.2 mph - N/A   Overcast
1:54 PM 51.8 °F - 41.0 °F 67% 30.00 in 10.0 mi SSW 9.2 mph - N/A   Scattered Clouds
2:15 PM 51.8 °F - 39.2 °F 62% 30.00 in 10.0 mi South 4.6 mph - N/A   Scattered Clouds
2:34 PM 51.8 °F - 39.2 °F 62% 30.00 in 10.0 mi SW 9.2 mph - N/A   Mostly Cloudy
2:54 PM 51.8 °F - 39.2 °F 62% 30.00 in 10.0 mi SSW 5.8 mph - N/A   Mostly Cloudy
3:15 PM 51.8 °F - 39.2 °F 62% 30.00 in 10.0 mi SW 6.9 mph - N/A   Overcast
3:34 PM 51.8 °F - 39.2 °F 62% 30.00 in 10.0 mi WSW 5.8 mph - N/A   Overcast
3:54 PM 50.0 °F - 44.6 °F 82% 30.02 in 10.0 mi West 12.7 mph - N/A   Overcast
4:15 PM 48.2 °F - 42.8 °F 82% 30.02 in 10.0 mi West 9.2 mph - N/A   Overcast
4:34 PM 48.2 °F - 42.8 °F 82% 30.02 in 10.0 mi WSW 8.1 mph - N/A   Mostly Cloudy
4:55 PM 48.2 °F - 42.8 °F 82% 30.02 in 10.0 mi WSW 8.1 mph - N/A   Mostly Cloudy
5:15 PM 46.4 °F 41.5 °F 41.0 °F 81% 30.02 in 10.0 mi West 10.4 mph - N/A   Mostly Cloudy
5:34 PM 46.4 °F 41.9 °F 41.0 °F 81% 30.03 in 10.0 mi West 9.2 mph - N/A   Mostly Cloudy
6:14 PM 46.4 °F 42.4 °F 41.0 °F 81% 30.04 in 10.0 mi WSW 8.1 mph - N/A   Overcast
6:34 PM 46.4 °F 42.9 °F 41.0 °F 81% 30.05 in 10.0 mi WSW 6.9 mph - N/A   Overcast
6:55 PM 46.4 °F 41.9 °F 41.0 °F 81% 30.05 in 10.0 mi West 9.2 mph - N/A   Overcast
7:14 PM 46.4 °F 41.5 °F 41.0 °F 81% 30.07 in 10.0 mi WSW 10.4 mph - N/A   Overcast
7:34 PM 46.4 °F 42.9 °F 41.0 °F 81% 30.07 in 10.0 mi WSW 6.9 mph - N/A   Overcast
7:55 PM 44.6 °F 41.4 °F 39.2 °F 81% 30.07 in 10.0 mi WSW 5.8 mph - N/A   Overcast
8:15 PM 44.6 °F 43.1 °F 39.2 °F 81% 30.07 in 10.0 mi WSW 3.5 mph - N/A   Overcast
8:34 PM 44.6 °F 42.2 °F 39.2 °F 81% 30.08 in 10.0 mi SW 4.6 mph - N/A   Overcast
8:55 PM 44.6 °F - 39.2 °F 81% 30.08 in 10.0 mi Calm Calm - N/A   Overcast
9:14 PM 44.6 °F 42.2 °F 39.2 °F 81% 30.08 in 10.0 mi SW 4.6 mph - N/A   Overcast
9:35 PM 44.6 °F - 39.2 °F 81% 30.09 in 10.0 mi Calm Calm - N/A   Overcast
10:14 PM 44.6 °F 42.2 °F 37.4 °F 76% 30.10 in 10.0 mi SW 4.6 mph - N/A   Overcast
10:35 PM 44.6 °F - 37.4 °F 76% 30.10 in 10.0 mi Calm Calm - N/A   Mostly Cloudy
10:54 PM 42.8 °F 41.1 °F 37.4 °F 81% 30.10 in 10.0 mi South 3.5 mph - N/A   Scattered Clouds
11:14 PM 41.0 °F 39.0 °F 37.4 °F 87% 30.10 in 10.0 mi South 3.5 mph - N/A   Scattered Clouds
11:35 PM 41.0 °F 39.0 °F 37.4 °F 87% 30.10 in 10.0 mi South 3.5 mph - N/A   Scattered Clouds
11:54 PM 39.2 °F 37.0 °F 37.4 °F 93% 30.10 in 10.0 mi South 3.5 mph - N/A   Mostly Cloudy